Powrót do katalogu

FENGYUN 1C DEB

AktywnyPO
NORAD 31005·DEBRIS·🇨🇳 China

Wystrzelony May 10, 1999 z Taiyuan Satellite Launch Center

Loading…

Następne Przeloty (najbliższe 24 godziny)

TLE

ŚwieżeSource: Space-Track

Epoka: Sep 14, 2026, 07:11 UTC

1 31005U 99025BCX 26257.29994062  .00001112  00000-0  91443-3 0  9996
2 31005  98.6322  13.4804 0178599 295.1794  90.0891 13.84147600980926

Śledź FENGYUN 1C DEB w czasie rzeczywistym z AllMySat

Download on the App Store